Theta_e
303 303 306 312 318 322 324 323 317 322 322 318 311 314 318 321 322 321 320 321 322 321 322 323 324 325 324 324 323 323 319 315 319 322 319 320 319 324 319 321 323 320 320 322
304 303 304 311 319 325 325 320 320 324 323 318 313 315 319 321 321 320 319 320 320 320 321 322 323 323 324 324 321 322 320 317 319 320 319 318 323 321 321 318 317 322 325 324
303 303 302 307 316 325 325 317 317 323 321 319 317 318 319 320 322 320 320 319 319 320 321 318 321 321 323 324 325 321 320 315 318 320 320 319 321 320 321 321 319 321 322 324
302 303 302 302 313 321 325 316 319 319 317 319 317 317 318 319 320 321 320 319 317 319 319 317 318 318 317 318 320 319 316 319 317 317 318 320 320 321 324 331 324 330 329 331
301 302 302 302 306 315 324 316 321 321 320 319 317 315 317 319 320 319 319 319 318 316 317 317 317 316 317 317 317 317 313 317 318 318 318 319 322 322 328 332 333 333 333 334
300 301 302 302 302 315 321 318 320 319 319 316 317 317 319 319 318 319 319 318 317 318 316 318 318 318 317 315 315 313 314 313 314 316 317 321 323 325 330 331 332 332 335 330
300 301 302 302 304 315 319 316 313 316 317 315 316 318 319 319 318 318 319 320 317 320 319 317 317 317 315 314 313 313 312 312 314 316 322 328 323 329 330 331 334 331 333 332
299 300 301 302 304 314 316 319 312 317 316 317 318 320 319 318 318 317 318 320 320 319 318 313 313 314 313 315 316 319 310 311 316 320 325 327 331 329 332 331 330 332 331 328
299 299 300 302 303 313 315 317 312 313 315 315 319 320 319 315 314 314 318 319 320 319 310 313 316 316 315 316 316 321 321 314 319 327 331 333 328 330 330 329 331 329 328 329
300 299 300 301 303 311 313 316 314 309 316 315 318 317 317 318 315 313 315 319 318 320 311 314 314 315 315 317 318 319 323 325 327 328 330 331 329 330 331 332 326 330 329 327
301 301 299 301 304 309 312 314 313 310 313 315 317 318 318 318 317 314 317 316 316 315 316 315 315 314 315 322 323 328 326 326 325 325 329 329 329 331 330 325 329 331 331 329
301 301 300 300 304 307 312 312 311 311 310 313 316 317 317 317 317 317 317 316 316 317 314 315 315 319 317 320 323 322 323 323 324 325 327 323 327 329 328 328 330 330 331 330
301 301 301 301 302 305 311 311 312 311 311 312 313 316 318 316 316 316 317 317 316 318 319 316 315 317 316 319 321 323 323 324 322 324 325 324 325 328 327 322 328 331 330 329
301 301 301 302 302 308 310 311 309 309 313 314 315 315 315 316 317 316 317 317 316 317 315 315 312 317 316 315 316 314 314 322 321 321 321 321 323 323 327 327 330 330 328 329
300 301 301 302 306 308 309 310 310 309 312 312 314 313 313 315 317 317 318 317 317 315 315 312 313 314 313 311 310 311 321 321 322 321 320 321 324 327 328 329 326 329 328 327
300 301 301 304 307 311 309 309 309 310 308 312 310 313 313 315 316 315 318 319 317 315 316 314 315 317 316 314 313 313 317 318 318 319 318 323 323 328 328 325 323 325 326 327
300 301 302 305 308 310 310 310 312 307 307 312 312 311 316 317 317 315 317 317 315 316 316 315 316 317 316 311 315 316 318 318 318 320 319 325 327 326 326 324 325 325 326 327
300 301 304 306 307 310 307 310 312 309 309 314 311 311 314 315 316 316 317 316 315 315 315 314 314 314 314 313 313 316 321 326 324 325 323 326 328 326 325 324 324 325 326 326
301 305 307 307 307 307 308 307 313 312 313 314 312 311 313 316 315 316 316 316 313 314 313 312 314 311 313 312 322 324 325 326 326 325 325 326 327 326 325 325 325 325 324 322
305 307 307 308 307 307 307 312 312 313 313 313 310 313 311 314 315 314 314 314 312 310 310 313 311 312 315 323 323 323 324 325 326 326 326 327 327 326 323 323 324 325 325 323
306 307 308 309 308 309 311 313 312 312 312 313 313 313 309 312 314 316 317 314 315 319 316 315 314 316 319 323 321 321 321 323 324 325 325 325 323 323 321 321 323 324 324 323
307 308 309 309 311 310 312 313 311 312 314 313 311 313 312 313 313 318 318 318 316 318 317 318 321 318 322 322 321 320 319 320 321 323 325 325 324 322 322 322 322 322 323 323
308 308 309 310 311 312 313 316 313 311 313 315 314 312 314 313 315 316 314 317 316 319 319 321 319 319 322 321 321 321 320 320 320 321 321 324 323 322 321 322 323 322 323 324
309 308 310 311 312 311 310 311 311 314 314 315 315 314 312 314 314 314 319 315 319 322 323 322 318 322 319 319 319 320 322 321 321 321 321 322 324 324 324 324 322 321 322 323
309 310 311 309 309 311 313 313 313 314 314 315 316 315 316 313 315 313 314 321 322 323 323 321 321 321 320 321 322 323 323 323 323 323 323 322 322 323 323 323 322 323 323 323
309 310 311 313 315 315 316 317 318 317 317 318 318 316 317 317 316 320 320 321 320 319 316 318 321 321 322 323 324 323 323 322 319 321 322 323 323 323 324 323 323 323 323 323
309 311 310 311 314 315 315 317 318 318 318 315 317 319 319 316 319 320 318 320 319 318 319 322 322 322 321 322 322 323 322 318 319 320 321 323 323 323 323 322 321 321 322 322
Wind_Speed
18 19 18 19 20 19 17 11 4 2 3 2 2 0 2 9 10 7 3 3 2 2 1 2 3 1 3 12 2 1 2 5 1 4 5 5 5 2 4 4 6 4 2 6
18 17 17 16 16 18 20 17 8 7 3 2 3 6 5 3 5 5 5 3 1 2 0 2 2 4 8 10 5 2 2 2 3 8 6 5 1 3 3 2 3 5 3 6
17 16 15 14 13 14 15 7 3 4 6 5 2 4 4 6 9 2 8 4 3 2 3 6 4 7 4 9 5 10 5 3 6 6 6 2 6 6 6 3 3 3 6 6
16 15 14 14 11 10 10 3 2 2 3 4 4 2 3 5 8 10 8 5 4 1 4 3 3 3 6 6 4 4 4 4 6 6 6 5 7 9 8 5 6 5 5 6
17 15 13 13 12 9 6 4 3 5 6 6 5 4 5 5 5 3 7 1 1 3 5 5 2 0 1 5 3 3 2 3 3 4 8 7 5 11 8 7 5 7 6 8
17 16 15 13 11 8 3 4 3 3 4 3 2 2 3 3 8 6 5 3 2 1 6 10 8 13 9 9 7 3 5 5 2 5 3 6 6 6 5 3 4 4 5 6
16 15 14 14 9 6 8 6 5 2 4 2 4 2 4 4 8 4 8 5 1 5 6 4 3 7 13 17 15 13 6 6 4 3 2 3 6 3 2 4 6 6 6 7
16 15 14 14 9 8 10 9 6 4 3 4 6 1 2 9 11 4 5 7 12 11 1 4 6 6 7 5 2 3 9 4 3 4 4 4 3 3 2 1 7 6 5 5
17 16 14 15 11 8 12 10 12 6 2 6 5 1 4 2 3 6 4 11 11 8 4 3 3 3 3 6 10 5 6 4 4 2 2 2 4 1 3 2 5 5 6 3
17 16 15 15 12 9 13 13 10 10 6 12 7 5 3 3 1 2 6 8 7 7 2 2 3 4 3 3 3 5 4 3 2 2 3 5 5 4 6 1 6 7 8 7
16 16 16 15 15 12 14 14 13 17 7 19 14 10 10 8 4 2 5 6 3 4 3 3 3 3 3 2 3 1 2 1 1 0 2 5 1 3 5 7 11 12 11 10
16 16 15 15 16 15 13 15 8 12 14 14 12 16 18 24 18 14 5 4 2 2 3 0 1 1 1 3 3 1 1 5 4 7 5 5 13 11 10 10 13 16 15 12
16 17 14 15 17 17 15 19 14 13 10 25 30 31 26 21 25 24 16 14 9 6 4 5 2 3 3 2 5 2 0 2 2 2 5 9 15 16 15 14 17 17 15 13
16 16 16 13 14 15 14 18 15 10 6 5 13 13 18 14 11 13 22 27 17 12 4 3 2 2 6 3 3 3 3 5 4 5 10 13 19 18 19 18 14 14 9 8
16 16 15 11 13 11 13 18 17 15 9 4 11 25 22 15 18 21 22 23 27 22 4 2 3 4 1 2 1 4 8 7 4 5 14 10 11 11 12 10 10 7 6 10
16 15 13 13 15 10 9 7 14 19 17 5 4 9 14 12 9 9 19 19 23 14 8 5 5 7 4 2 4 7 10 13 16 16 17 18 17 9 6 4 5 5 7 10
15 15 11 16 15 17 14 3 4 14 17 4 6 8 6 4 13 13 14 14 11 11 8 6 9 12 7 2 5 9 30 31 27 18 18 14 14 9 10 8 6 1 4 6
14 10 14 13 17 18 18 10 9 15 15 4 2 4 7 4 6 7 12 10 10 6 6 3 4 3 4 3 12 15 14 14 11 8 13 14 17 11 17 13 10 5 3 2
9 9 11 10 10 7 8 10 5 17 9 3 4 2 4 7 2 6 6 7 2 3 3 4 5 2 4 7 5 7 8 5 8 5 9 14 15 18 18 15 15 13 6 3
8 14 5 4 5 7 12 9 6 6 6 6 5 5 3 7 5 1 5 2 2 2 4 3 3 4 6 5 4 1 3 5 10 9 8 12 17 18 15 12 9 12 12 14
13 7 5 5 11 9 6 3 5 6 3 8 9 18 6 5 1 2 3 3 1 1 4 4 2 2 3 5 5 4 3 2 4 11 16 15 8 15 12 7 6 4 9 16
10 4 5 11 5 3 2 4 2 4 5 6 7 11 15 7 8 3 1 3 1 4 1 1 1 3 7 5 6 5 4 3 3 5 7 12 12 7 6 4 3 3 12 9
6 2 4 5 5 5 5 7 4 3 5 5 7 3 8 9 7 3 3 2 4 2 2 1 2 6 2 0 2 2 4 2 5 7 6 2 9 5 3 2 2 4 5 7
5 6 4 3 3 4 5 4 3 10 4 8 7 5 5 4 3 3 3 3 2 1 2 1 2 8 7 5 6 7 5 3 6 8 4 1 10 9 6 5 11 11 6 3
3 2 2 5 9 10 14 15 13 19 18 17 2 3 4 1 3 2 2 1 4 1 2 2 6 8 4 8 9 7 8 6 4 6 2 7 6 5 5 6 10 8 5 6
2 2 4 7 7 5 6 7 12 8 3 4 2 3 3 2 1 2 1 1 3 2 2 2 3 2 1 2 1 2 6 8 7 3 2 4 10 15 9 5 5 7 4 2
3 3 10 14 12 8 10 9 8 2 3 2 3 4 1 1 2 1 2 2 1 7 9 5 4 5 5 3 2 3 2 6 5 4 5 4 5 7 10 10 6 4 2 2
Wind_Direction
309 311 316 325 328 333 334 345 340 333 295 335 24 1 227 311 324 357 327 108 111 126 142 328 331 26 282 334 206 98 51 129 130 231 301 273 177 96 121 110 292 236 188 269
306 310 312 320 331 339 348 335 293 6 275 84 335 309 300 291 339 324 10 16 44 179 200 345 219 1 9 29 63 108 187 17 24 351 354 347 211 264 158 121 83 227 186 269
303 306 307 307 319 330 342 332 343 343 56 68 128 353 296 327 317 282 354 305 11 45 40 17 357 354 14 8 61 48 95 112 150 192 216 225 305 299 307 154 165 256 229 280
299 299 299 295 295 310 336 305 292 11 316 332 352 306 333 345 1 343 331 348 50 130 50 34 33 349 333 334 42 44 86 206 186 231 239 221 233 263 293 240 220 191 244 231
299 296 292 288 285 286 304 290 342 344 302 310 341 352 19 352 330 255 317 183 113 96 134 158 268 171 185 252 311 85 24 264 182 255 264 258 263 286 254 241 236 262 274 285
294 295 289 283 276 277 251 245 270 294 293 349 25 172 348 325 350 297 338 284 312 188 211 191 248 242 219 226 223 230 175 164 126 259 282 341 319 250 212 248 220 203 239 239
286 285 282 280 277 269 250 255 276 264 265 199 211 349 333 314 313 258 307 11 226 312 287 202 212 260 260 254 253 208 187 165 146 258 42 244 259 345 230 246 249 228 276 276
280 277 272 268 260 272 257 251 242 230 261 239 294 263 292 316 316 277 284 333 334 322 304 35 16 338 354 316 281 312 218 131 190 166 188 286 293 291 281 277 284 217 244 296
278 273 268 257 251 260 266 256 228 219 229 241 224 299 295 264 291 325 277 318 338 346 78 76 131 245 263 315 326 82 74 91 118 114 163 255 231 213 291 97 289 237 239 300
281 270 264 252 243 234 262 256 236 211 240 258 256 218 214 247 240 260 298 333 331 7 71 119 174 244 231 266 270 324 347 14 172 211 185 267 260 151 158 42 245 284 255 269
289 278 262 248 234 223 262 256 227 211 239 256 251 240 222 247 257 188 312 347 318 26 66 143 223 177 249 313 266 265 199 83 314 107 48 285 195 137 169 220 286 283 268 259
286 284 269 247 229 214 257 254 234 218 238 255 250 251 258 252 261 245 256 266 274 229 90 297 128 303 355 171 280 128 337 185 203 179 221 216 288 249 266 276 269 281 274 264
279 281 275 255 235 210 235 247 237 243 272 275 266 261 263 267 254 249 234 254 228 230 193 166 189 236 133 205 242 285 24 149 218 340 294 249 258 268 254 285 291 292 287 289
274 277 272 254 222 215 224 252 260 243 251 269 278 269 256 262 222 227 245 246 232 227 228 220 172 194 196 222 234 184 225 146 225 255 283 275 260 253 258 275 282 285 304 300
272 277 275 232 204 211 230 246 246 232 227 286 288 293 280 260 242 244 235 235 234 238 228 149 217 225 185 243 53 239 188 206 188 233 291 240 271 268 251 259 265 270 297 317
271 270 268 208 192 222 219 266 245 221 214 282 305 297 279 246 248 258 221 228 227 217 209 205 221 227 215 249 236 248 218 279 280 281 287 289 263 256 230 266 285 203 325 329
270 267 235 197 202 209 200 196 176 187 183 243 293 289 280 264 239 208 199 212 204 212 217 210 225 227 215 213 247 286 291 287 294 290 271 250 231 205 205 171 152 164 333 337
267 253 186 197 207 224 226 214 176 174 176 235 259 272 305 184 159 146 181 173 198 213 215 200 204 195 197 248 249 267 257 260 244 264 225 244 211 194 186 195 206 221 257 355
230 178 183 176 179 206 221 219 217 176 207 232 207 252 272 356 112 140 146 188 137 200 193 223 164 217 222 227 276 268 281 257 254 218 223 233 217 197 199 210 209 200 187 181
195 164 160 208 213 195 169 179 177 179 209 233 237 236 272 339 12 95 123 153 184 181 237 158 173 242 258 234 230 74 332 250 205 199 196 197 201 200 202 205 214 203 191 188
162 171 216 189 159 154 190 192 171 191 254 221 231 217 223 280 136 252 190 165 152 202 248 162 219 279 247 181 148 108 88 111 228 249 257 241 234 207 217 243 215 210 193 198
173 188 171 149 180 190 183 189 213 217 227 216 192 215 205 215 218 162 178 148 114 242 197 128 304 273 313 228 220 254 262 241 271 283 293 234 254 215 187 243 240 253 211 201
200 214 179 180 170 187 215 186 205 221 217 222 193 193 179 192 188 85 90 145 223 128 71 194 242 341 114 282 308 265 243 219 144 17 327 223 173 134 163 234 229 161 187 220
234 171 184 233 179 238 213 217 210 230 245 301 256 182 174 165 129 154 160 230 108 3 86 315 271 121 83 352 286 275 345 308 230 272 285 81 227 245 173 169 172 179 236 250
264 205 232 214 241 266 269 266 263 269 269 301 241 140 164 58 140 181 103 203 46 247 235 204 180 172 217 261 281 297 352 344 316 351 244 205 196 210 195 214 233 224 219 190
293 249 276 314 301 291 313 325 286 277 254 233 169 84 65 28 80 85 122 48 171 193 212 153 139 130 58 8 261 306 323 343 344 346 40 236 237 225 224 183 144 146 140 166
263 270 303 294 281 282 315 320 348 51 185 124 92 57 33 66 64 44 160 140 167 144 114 95 59 23 3 336 262 221 347 10 30 60 65 78 95 126 158 177 168 130 186 166